SCP
0 0 0 0 0 0 0 0 0 0 0 0 0 0 0 0 0 0 0 0 0 0 0 0 0 0 0 0 0 0 0 0 0 0 0 0 0 -0
0 0 0 0 0 0 0 0 0 0 0 0 0 0 0 0 0 0 0 0 0 0 0 0 0 0 0 0 0 0 0 0 0 0 0 0 0 -0
0 0 0 0 0 0 0 0 0 0 0 0 0 0 0 0 0 0 0 0 0 0 0 0 0 0 0 0 0 0 0 0 0 0 0 0 0 0
0 0 0 0 0 0 0 0 0 0 0 0 0 0 0 0 0 0 0 0 0 0 0 0 0 -0 -0 -0 0 0 0 0 0 0 0 0 0 0
0 0 0 0 0 0 0 0 0 0 0 0 0 0 0 0 0 0 0 0 0 0 0 0 0 0 0 -0 0 0 0 0 0 0 0 0 0 0
0 0 0 0 0 0 0 0 0 0 0 0 0 0 0 0 0 0 0 0 0 0 0 0 0 0 0 0 0 0 0 0 0 0 0 0 0 0
0 0 0 0 0 0 0 0 0 0 0 0 0 0 0 0 0 0 0 0 0 0 0 0 0 0 0 0 0 0 0 0 0 0 -0 0 0 0
0 0 0 0 0 0 0 0 0 0 0 0 0 0 0 0 0 0 0 0 0 0 0 0 0 0 0 0 0 0 0 0 0 0 -0 0 0 0
0 0 0 0 0 0 0 0 0 0 0 0 0 0 0 0 0 0 0 0 0 0 0 0 0 0 0 0 0 0 0 0 0 0 0 0 0 0
0 0 0 0 0 0 0 0 0 0 0 0 0 0 0 0 0 0 0 0 0 0 0 0 0 0 0 0 0 0 0 0 0 0 0 0 0 0
0 0 0 0 0 0 0 0 0 0 0 0 0 0 0 0 0 0 0 0 -0 0 0 0 0 0 0 0 0 0 0 0 0 0 0 0 0 0
0 0 0 0 0 0 0 0 0 0 0 0 0 0 0 0 0 0 0 0 0 0 0 0 0 0 0 0 0 0 0 0 0 0 0 0 0 0
0 0 0 0 0 0 0 0 0 -0 0 0 0 0 0 0 0 0 0 0 0 0 0 0 0 0 0 0 0 0 0 0 0 0 0 0 0 0
0 0 0 0 0 0 0 0 0 0 -0 0 0 -0 -0 0 0 0 0 0 0 0 0 0 0 0 0 0 0 0 0 0 0 0 0 0 0 0
0 0 0 0 0 0 0 0 0 -0 -0 -0 -0 0 0 0 0 0 0 0 0 0 0 0 0 0 0 0 0 0 0 0 0 0 0 0 0 0
0 0 0 0 0 0 0 -0 0 -0 -0 -0 0 0 0 0 0 0 0 0 0 0 0 0 0 0 0 0 0 0 0 0 0 0 0 0 0 0
0 0 0 0 0 0 0 -0 -0 -0 0 -0 0 0 0 0 0 0 0 0 0 0 0 0 0 0 0 0 -0 0 0 0 0 0 0 0 0 0
0 0 0 0 0 -0 -0 -0 -0 0 0 -0 0 0 0 0 0 0 0 0 0 0 0 0 0 0 0 0 0 0 0 0 0 0 0 0 0 0
0 0 0 -0 -0 -0 -0 -0 -0 0 -0 -0 -0 -0 0 0 0 0 0 0 0 0 0 0 0 0 0 0 0 -0 0 0 0 0 0 0 0 0
0 0 0 0 -0 -0 -0 -0 0 0 0 0 0 0 0 0 0 0 0 0 0 -0 0 0 0 0 0 0 0 -0 -0 0 0 0 0 0 0 0
0 0 -0 -0 0 -0 -0 0 0 0 0 0 0 0 0 0 0 0 0 0 0 0 0 -0 0 -0 0 0 0 -0 -0 -0 0 0 0 0 0 0
0 0 -0 -0 0 -0 -0 0 0 0 0 0 0 0 0 0 0 0 0 0 0 0 -0 -0 0 0 0 0 0 0 0 0 0 -0 -0 0 0 0
0 0 -0 -0 0 -0 -0 -0 0 0 0 0 0 0 0 0 0 0 0 0 0 0 0 0 0 0 -0 -0 0 0 0 0 0 -0 0 -0 0 -0
Wind_Speed_500mb
26 18 23 25 34 32 37 43 47 45 58 65 62 61 64 69 65 69 67 64 57 57 57 54 55 56 56 57 59 61 57 56 56 61 57 53 64 85
14 21 28 32 36 42 34 37 44 48 51 57 64 71 70 71 71 66 58 52 58 53 49 55 57 54 56 55 57 57 55 50 49 50 52 52 53 67
23 27 33 34 37 38 39 43 42 41 53 69 69 65 69 68 64 60 65 70 68 61 51 57 58 53 53 59 62 61 56 54 53 53 51 49 49 55
37 36 32 32 39 38 39 42 43 46 54 58 64 62 60 62 64 69 73 71 67 70 65 58 59 52 53 63 59 54 58 57 46 40 44 47 50 53
39 37 34 33 38 37 39 45 50 51 47 52 56 57 62 70 71 71 74 72 69 67 62 55 45 36 40 45 46 48 46 42 45 46 47 54 46 47
31 20 23 29 38 39 42 46 47 48 39 43 51 60 61 72 67 74 82 74 77 68 57 51 55 58 52 50 45 47 44 44 44 44 46 41 42 43
16 16 24 34 39 42 44 47 40 30 38 45 51 60 70 73 74 80 83 88 86 66 72 66 62 53 45 47 36 32 35 36 41 50 52 55 52 53
24 24 26 35 39 43 38 28 17 27 37 39 52 62 61 66 70 76 80 83 83 72 85 88 62 61 50 45 33 24 24 30 43 53 57 58 56 57
28 30 29 36 40 35 32 22 16 20 30 41 46 51 65 64 65 74 77 78 83 87 82 86 54 56 52 50 27 27 31 37 46 53 58 53 53 52
25 20 24 26 30 34 27 25 25 29 33 39 43 52 55 63 62 66 69 76 84 86 71 68 43 47 53 50 34 26 36 34 40 54 56 55 52 48
14 15 20 25 26 27 30 30 34 37 40 45 50 53 66 72 76 77 70 74 86 86 45 38 25 35 56 48 41 28 33 44 52 50 53 44 38 39
14 20 23 26 30 34 33 41 46 49 56 60 51 54 70 79 77 66 60 65 67 69 35 56 45 42 34 52 54 34 36 41 41 40 44 40 37 34
26 27 26 28 28 31 33 39 44 52 52 51 49 70 80 81 71 60 51 47 52 58 57 45 50 49 46 53 61 58 45 40 38 38 41 35 26 19
29 31 30 28 26 28 36 41 44 48 57 54 62 76 85 76 68 61 53 44 40 46 39 28 48 46 46 54 61 57 50 40 43 36 48 30 12 18
30 28 29 28 29 32 36 44 45 60 66 62 66 76 82 75 64 63 56 51 47 33 28 25 33 41 46 52 55 52 52 52 35 44 47 22 9 22
25 22 26 30 33 35 41 50 52 65 69 65 62 75 86 83 75 72 69 63 60 54 37 28 24 27 38 42 39 48 41 50 50 49 28 2 16 26
28 33 42 46 51 51 51 54 58 71 74 68 69 71 85 92 87 82 79 71 67 58 47 33 24 24 28 25 32 37 41 39 40 22 5 7 20 23
46 49 51 53 53 56 60 58 63 74 74 71 74 70 82 92 96 93 85 77 74 59 48 38 30 24 22 22 30 38 39 37 15 11 4 11 32 29
47 49 49 52 52 56 68 61 67 72 72 73 72 77 76 85 97 100 92 85 79 69 55 44 42 45 44 45 38 22 17 12 13 12 7 13 25 22
45 46 47 50 48 55 67 69 69 73 74 74 75 78 79 81 93 100 96 94 83 72 59 50 44 35 36 35 26 25 20 12 9 12 15 21 18 17
42 44 46 48 45 52 64 71 71 73 73 74 75 79 83 85 88 92 97 97 88 75 68 55 44 38 37 32 19 14 17 11 10 8 12 18 16 21
37 40 44 48 44 55 64 71 72 75 76 75 76 78 81 86 87 89 96 100 92 81 69 52 41 41 48 33 25 16 15 14 11 9 11 12 13 14
38 37 43 48 48 58 65 72 70 73 76 74 75 76 78 85 87 82 89 94 91 86 72 57 46 42 43 35 31 28 25 23 22 16 25 20 13 22
Wind_Direction_500mb
320 317 309 306 299 296 302 304 311 322 315 310 312 313 316 317 317 318 317 315 310 304 303 300 301 298 296 293 288 286 284 281 278 277 279 277 260 253
315 310 306 307 304 302 307 310 313 310 306 310 305 311 317 317 319 320 320 316 315 313 310 302 298 299 292 288 289 285 285 284 285 280 277 277 272 258
291 296 303 316 313 311 309 312 310 306 307 301 306 316 322 326 325 328 330 325 322 320 312 304 304 299 292 289 286 281 281 284 287 283 279 277 276 269
311 301 303 307 308 305 306 312 312 307 308 305 313 323 335 341 338 337 334 331 321 326 318 313 302 298 294 290 290 283 280 280 285 283 280 278 276 272
308 299 295 301 301 304 309 312 307 308 309 308 318 331 334 341 335 334 331 328 327 328 329 325 322 313 305 292 292 286 281 277 277 290 296 284 272 276
314 302 294 301 298 302 306 308 310 314 318 323 324 328 330 328 328 330 333 336 332 334 332 328 326 320 323 315 294 283 273 276 281 285 290 287 278 280
318 290 304 303 301 304 308 307 318 327 324 325 328 327 323 327 333 331 329 329 332 338 337 327 323 321 322 318 306 286 266 279 280 292 292 287 282 280
308 311 309 298 299 299 305 314 323 327 319 323 323 321 324 332 329 325 323 325 322 328 327 320 320 323 329 335 311 283 288 297 292 288 298 290 283 275
306 298 300 300 304 312 321 315 301 305 307 312 315 334 335 333 320 318 317 316 314 317 314 315 314 319 325 326 321 298 292 295 292 303 301 302 291 282
315 311 315 312 314 324 335 344 349 337 339 337 331 336 336 335 330 322 314 311 312 320 322 307 310 312 319 325 318 305 305 294 302 306 300 296 291 283
330 312 329 335 338 350 358 352 349 342 341 343 336 342 338 337 333 328 326 321 321 321 337 339 331 302 312 326 338 303 288 300 306 302 306 301 287 282
358 10 17 26 34 28 11 3 350 347 343 337 342 344 340 338 333 331 327 319 319 320 308 316 302 311 310 315 330 327 294 300 311 314 310 303 293 278
48 44 33 30 32 30 18 4 355 345 347 349 351 348 346 342 341 340 337 327 316 305 320 314 301 302 308 310 314 328 326 318 321 318 329 305 295 258
44 40 37 31 26 26 19 1 356 0 2 1 358 355 352 352 353 352 350 341 328 316 322 309 289 295 299 304 298 319 324 319 326 318 330 312 275 183
49 41 33 27 27 32 18 5 10 7 4 4 0 2 5 3 360 359 358 353 350 353 338 319 296 292 285 293 293 311 320 319 324 320 321 300 168 181
37 45 39 34 34 26 23 12 15 8 5 4 359 5 11 10 11 8 5 2 355 355 0 352 320 293 288 292 290 301 310 307 315 320 304 283 151 166
37 42 35 31 25 22 19 13 12 8 9 9 6 7 13 12 14 13 8 2 360 353 355 3 355 330 306 305 305 314 311 315 313 319 9 103 145 157
39 38 31 26 24 16 13 11 10 8 10 10 11 12 13 15 14 13 7 4 1 1 356 9 6 353 338 314 298 307 309 313 341 336 158 133 146 158
43 33 29 23 22 12 13 12 10 9 11 12 11 14 12 16 14 11 8 6 4 2 7 5 356 348 331 307 319 333 357 347 6 7 200 140 121 140
44 31 24 18 19 8 10 10 8 10 12 12 12 15 12 15 13 8 8 6 4 3 6 10 7 3 351 345 322 331 342 355 7 20 109 135 138 130
40 28 18 17 12 6 8 8 9 10 11 11 12 13 11 17 13 7 9 8 7 5 5 4 6 360 339 345 348 357 17 19 16 34 105 123 147 140
33 27 15 13 4 6 7 7 8 8 9 10 10 11 9 15 13 5 12 5 8 7 2 6 4 6 2 10 22 23 19 30 66 99 108 105 138 146
28 18 7 9 1 3 3 5 8 7 6 6 9 8 8 11 12 7 12 7 9 8 7 8 15 22 4 19 26 40 59 79 99 129 108 99 105 138
Wind_Speed_850mb
26 18 23 25 34 32 37 43 47 45 58 65 62 61 64 69 65 69 67 64 57 57 57 54 55 56 56 57 59 61 57 56 56 61 57 53 64 85
14 21 28 32 36 42 34 37 44 48 51 57 64 71 70 71 71 66 58 52 58 53 49 55 57 54 56 55 57 57 55 50 49 50 52 52 53 67
23 27 33 34 37 38 39 43 42 41 53 69 69 65 69 68 64 60 65 70 68 61 51 57 58 53 53 59 62 61 56 54 53 53 51 49 49 55
37 36 32 32 39 38 39 42 43 46 54 58 64 62 60 62 64 69 73 71 67 70 65 58 59 52 53 63 59 54 58 57 46 40 44 47 50 53
39 37 34 33 38 37 39 45 50 51 47 52 56 57 62 70 71 71 74 72 69 67 62 55 45 36 40 45 46 48 46 42 45 46 47 54 46 47
31 20 23 29 38 39 42 46 47 48 39 43 51 60 61 72 67 74 82 74 77 68 57 51 55 58 52 50 45 47 44 44 44 44 46 41 42 43
16 16 24 34 39 42 44 47 40 30 38 45 51 60 70 73 74 80 83 88 86 66 72 66 62 53 45 47 36 32 35 36 41 50 52 55 52 53
24 24 26 35 39 43 38 28 17 27 37 39 52 62 61 66 70 76 80 83 83 72 85 88 62 61 50 45 33 24 24 30 43 53 57 58 56 57
28 30 29 36 40 35 32 22 16 20 30 41 46 51 65 64 65 74 77 78 83 87 82 86 54 56 52 50 27 27 31 37 46 53 58 53 53 52
25 20 24 26 30 34 27 25 25 29 33 39 43 52 55 63 62 66 69 76 84 86 71 68 43 47 53 50 34 26 36 34 40 54 56 55 52 48
14 15 20 25 26 27 30 30 34 37 40 45 50 53 66 72 76 77 70 74 86 86 45 38 25 35 56 48 41 28 33 44 52 50 53 44 38 39
14 20 23 26 30 34 33 41 46 49 56 60 51 54 70 79 77 66 60 65 67 69 35 56 45 42 34 52 54 34 36 41 41 40 44 40 37 34
26 27 26 28 28 31 33 39 44 52 52 51 49 70 80 81 71 60 51 47 52 58 57 45 50 49 46 53 61 58 45 40 38 38 41 35 26 19
29 31 30 28 26 28 36 41 44 48 57 54 62 76 85 76 68 61 53 44 40 46 39 28 48 46 46 54 61 57 50 40 43 36 48 30 12 18
30 28 29 28 29 32 36 44 45 60 66 62 66 76 82 75 64 63 56 51 47 33 28 25 33 41 46 52 55 52 52 52 35 44 47 22 9 22
25 22 26 30 33 35 41 50 52 65 69 65 62 75 86 83 75 72 69 63 60 54 37 28 24 27 38 42 39 48 41 50 50 49 28 2 16 26
28 33 42 46 51 51 51 54 58 71 74 68 69 71 85 92 87 82 79 71 67 58 47 33 24 24 28 25 32 37 41 39 40 22 5 7 20 23
46 49 51 53 53 56 60 58 63 74 74 71 74 70 82 92 96 93 85 77 74 59 48 38 30 24 22 22 30 38 39 37 15 11 4 11 32 29
47 49 49 52 52 56 68 61 67 72 72 73 72 77 76 85 97 100 92 85 79 69 55 44 42 45 44 45 38 22 17 12 13 12 7 13 25 22
45 46 47 50 48 55 67 69 69 73 74 74 75 78 79 81 93 100 96 94 83 72 59 50 44 35 36 35 26 25 20 12 9 12 15 21 18 17
42 44 46 48 45 52 64 71 71 73 73 74 75 79 83 85 88 92 97 97 88 75 68 55 44 38 37 32 19 14 17 11 10 8 12 18 16 21
37 40 44 48 44 55 64 71 72 75 76 75 76 78 81 86 87 89 96 100 92 81 69 52 41 41 48 33 25 16 15 14 11 9 11 12 13 14
38 37 43 48 48 58 65 72 70 73 76 74 75 76 78 85 87 82 89 94 91 86 72 57 46 42 43 35 31 28 25 23 22 16 25 20 13 22
Wind_Direction_850mb
320 317 309 306 299 296 302 304 311 322 315 310 312 313 316 317 317 318 317 315 310 304 303 300 301 298 296 293 288 286 284 281 278 277 279 277 260 253
315 310 306 307 304 302 307 310 313 310 306 310 305 311 317 317 319 320 320 316 315 313 310 302 298 299 292 288 289 285 285 284 285 280 277 277 272 258
291 296 303 316 313 311 309 312 310 306 307 301 306 316 322 326 325 328 330 325 322 320 312 304 304 299 292 289 286 281 281 284 287 283 279 277 276 269
311 301 303 307 308 305 306 312 312 307 308 305 313 323 335 341 338 337 334 331 321 326 318 313 302 298 294 290 290 283 280 280 285 283 280 278 276 272
308 299 295 301 301 304 309 312 307 308 309 308 318 331 334 341 335 334 331 328 327 328 329 325 322 313 305 292 292 286 281 277 277 290 296 284 272 276
314 302 294 301 298 302 306 308 310 314 318 323 324 328 330 328 328 330 333 336 332 334 332 328 326 320 323 315 294 283 273 276 281 285 290 287 278 280
318 290 304 303 301 304 308 307 318 327 324 325 328 327 323 327 333 331 329 329 332 338 337 327 323 321 322 318 306 286 266 279 280 292 292 287 282 280
308 311 309 298 299 299 305 314 323 327 319 323 323 321 324 332 329 325 323 325 322 328 327 320 320 323 329 335 311 283 288 297 292 288 298 290 283 275
306 298 300 300 304 312 321 315 301 305 307 312 315 334 335 333 320 318 317 316 314 317 314 315 314 319 325 326 321 298 292 295 292 303 301 302 291 282
315 311 315 312 314 324 335 344 349 337 339 337 331 336 336 335 330 322 314 311 312 320 322 307 310 312 319 325 318 305 305 294 302 306 300 296 291 283
330 312 329 335 338 350 358 352 349 342 341 343 336 342 338 337 333 328 326 321 321 321 337 339 331 302 312 326 338 303 288 300 306 302 306 301 287 282
358 10 17 26 34 28 11 3 350 347 343 337 342 344 340 338 333 331 327 319 319 320 308 316 302 311 310 315 330 327 294 300 311 314 310 303 293 278
48 44 33 30 32 30 18 4 355 345 347 349 351 348 346 342 341 340 337 327 316 305 320 314 301 302 308 310 314 328 326 318 321 318 329 305 295 258
44 40 37 31 26 26 19 1 356 0 2 1 358 355 352 352 353 352 350 341 328 316 322 309 289 295 299 304 298 319 324 319 326 318 330 312 275 183
49 41 33 27 27 32 18 5 10 7 4 4 0 2 5 3 360 359 358 353 350 353 338 319 296 292 285 293 293 311 320 319 324 320 321 300 168 181
37 45 39 34 34 26 23 12 15 8 5 4 359 5 11 10 11 8 5 2 355 355 0 352 320 293 288 292 290 301 310 307 315 320 304 283 151 166
37 42 35 31 25 22 19 13 12 8 9 9 6 7 13 12 14 13 8 2 360 353 355 3 355 330 306 305 305 314 311 315 313 319 9 103 145 157
39 38 31 26 24 16 13 11 10 8 10 10 11 12 13 15 14 13 7 4 1 1 356 9 6 353 338 314 298 307 309 313 341 336 158 133 146 158
43 33 29 23 22 12 13 12 10 9 11 12 11 14 12 16 14 11 8 6 4 2 7 5 356 348 331 307 319 333 357 347 6 7 200 140 121 140
44 31 24 18 19 8 10 10 8 10 12 12 12 15 12 15 13 8 8 6 4 3 6 10 7 3 351 345 322 331 342 355 7 20 109 135 138 130
40 28 18 17 12 6 8 8 9 10 11 11 12 13 11 17 13 7 9 8 7 5 5 4 6 360 339 345 348 357 17 19 16 34 105 123 147 140
33 27 15 13 4 6 7 7 8 8 9 10 10 11 9 15 13 5 12 5 8 7 2 6 4 6 2 10 22 23 19 30 66 99 108 105 138 146
28 18 7 9 1 3 3 5 8 7 6 6 9 8 8 11 12 7 12 7 9 8 7 8 15 22 4 19 26 40 59 79 99 129 108 99 105 138